DW6386 Weather Reports


time (UTC)temp
F
wind
direction
speed
knots
gust
knots
rain 1hr
in
rain 24hr
in
rain mn
in
humidity
%
barometer
mb
20260509203001 76 44 0.0 3.5 0.00 0.00 0.00 62 1009.0
20260509201608 76 46 0.0 2.6 0.00 0.00 0.00 62 1009.2
20260509200107 75 292 0.9 3.5 0.00 0.00 0.00 64 1009.5
20260509194555 75 295 0.9 4.3 0.00 0.00 0.00 62 1009.5
20260509193154 75 71 0.0 3.5 0.00 0.00 0.00 63 1009.6
20260509191550 74 28 1.7 5.2 0.00 0.00 0.00 62 1009.7
20260509190048 74 103 0.9 8.7 0.00 0.00 0.00 62 1009.7
20260509184558 74 49 1.7 6.1 0.00 0.00 0.00 64 1009.7
20260509183044 73 40 0.9 4.3 0.00 0.00 0.00 66 1009.7
20260509181547 71 58 1.7 5.2 0.00 0.00 0.00 66 1009.7
20260509180038 71 346 0.9 3.5 0.00 0.00 0.00 68 1009.8
20260509174539 71 46 1.7 6.1 0.00 0.00 0.00 68 1009.9
20260509173036 71 304 0.9 3.5 0.00 0.00 0.00 69 1010.0
20260509171535 71 274 1.7 5.2 0.00 0.00 0.00 69 1010.1
20260509170035 70 224 0.9 7.0 0.00 0.00 0.00 69 1010.2
20260509164531 72 350 1.7 6.1 0.00 0.00 0.00 71 1010.3
20260509163027 71 25 1.7 7.8 0.00 0.00 0.00 69 1010.6
20260509161529 69 32 4.3 9.6 0.00 0.00 0.00 70 1010.6
20260509160032 69 297 2.6 7.0 0.00 0.00 0.00 71 1010.6
20260509154522 69 44 1.7 6.1 0.00 0.00 0.00 73 1010.7
20260509153031 68 52 0.9 7.8 0.00 0.00 0.00 74 1010.7
20260509151517 68 353 0.0 5.2 0.00 0.00 0.00 72 1010.8
20260509150020 66 258 0.0 4.3 0.00 0.00 0.00 77 1010.8
20260509144523 65 46 0.9 8.7 0.00 0.00 0.00 77 1010.6
20260509143008 64 39 0.0 7.8 0.00 0.00 0.00 79 1010.6
20260509141508 63 32 2.6 6.1 0.00 0.00 0.00 78 1010.7
20260509140001 62 96 0.0 4.3 0.00 0.00 0.00 81 1010.7
20260509134612 62 153 0.0 1.7 0.00 0.00 0.00 83 1010.4
20260509133055 59 85 0.0 0.9 0.00 0.00 0.00 91 1010.5
20260509131550 56 61 0.0 0.9 0.00 0.00 0.00 94 1010.4
20260509130056 55 110 0.0 0.0 0.00 0.00 0.00 95 1010.8
20260509124545 53 119 0.0 0.0 0.00 0.00 0.00 97 1010.8
20260509123051 52 119 0.0 0.0 0.00 0.00 0.00 96 1010.8
20260509121553 52 119 0.0 0.0 0.00 0.00 0.00 97 1010.9
20260509120035 51 119 0.0 0.0 0.00 0.00 0.00 97 1011.1
20260509114537 50 119 0.0 0.0 0.00 0.00 0.00 97 1011.1
20260509113036 50 118 0.0 0.0 0.00 0.00 0.00 97 1010.8
20260509111529 49 116 0.0 0.0 0.00 0.00 0.00 97 1010.8
20260509110032 49 115 0.0 0.0 0.00 0.00 0.00 97 1010.5
20260509104538 48 115 0.0 0.0 0.00 0.00 0.00 97 1010.5
20260509103027 47 115 0.0 0.0 0.00 0.00 0.00 96 1010.5
20260509101533 47 115 0.0 0.0 0.00 0.00 0.00 96 1010.8
20260509100028 47 115 0.0 0.0 0.00 0.00 0.00 96 1010.9
20260509094532 47 115 0.0 0.0 0.00 0.00 0.00 96 1011.0
20260509093025 47 115 0.0 0.0 0.00 0.00 0.00 96 1010.9
20260509091535 46 115 0.0 0.0 0.00 0.00 0.00 97 1010.8
20260509090025 46 115 0.0 0.0 0.00 0.00 0.00 96 1010.5
20260509084524 46 115 0.0 0.0 0.00 0.00 0.00 96 1010.4
20260509083021 46 113 0.0 0.0 0.00 0.00 0.00 96 1010.4
20260509081526 46 113 0.0 0.0 0.00 0.00 0.00 95 1010.3
20260509080019 46 113 0.0 0.0 0.00 0.00 0.00 95 1010.6
20260509074531 46 113 0.0 0.0 0.00 0.00 0.00 96 1010.5
20260509073018 46 113 0.0 0.0 0.00 0.00 0.00 95 1010.4
20260509071515 45 113 0.0 0.0 0.00 0.00 0.00 94 1010.6
20260509070014 46 113 0.0 0.0 0.00 0.00 0.00 95 1010.5
20260509064512 46 113 0.0 0.0 0.00 0.00 0.00 95 1010.7
20260509063014 46 113 0.0 0.0 0.00 0.00 0.00 93 1010.8
20260509061505 47 113 0.0 0.0 0.00 0.00 0.00 94 1010.9
20260509060004 47 113 0.0 0.0 0.00 0.00 0.00 93 1011.1
20260509054504 47 73 0.0 0.0 0.00 0.00 0.00 93 1011.0
20260509053110 47 73 0.0 0.0 0.00 0.00 0.00 93 1011.3
20260509051559 47 73 0.0 0.0 0.00 0.00 0.00 92 1011.5
20260509050053 48 73 0.0 0.0 0.00 0.00 0.00 92 1011.7
20260509044552 48 73 0.0 0.0 0.00 0.00 0.00 91 1011.7
20260509043050 48 73 0.0 0.0 0.00 0.00 0.00 90 1011.7
20260509041611 48 73 0.0 0.0 0.00 0.00 0.00 88 1011.8
20260509040045 50 73 0.0 0.0 0.00 0.00 0.00 88 1011.9
20260509034544 49 73 0.0 0.0 0.00 0.00 0.00 87 1012.1
20260509033043 50 73 0.0 0.0 0.00 0.00 0.00 86 1012.1
20260509031542 51 73 0.0 0.0 0.00 0.00 0.00 85 1012.2
20260509030045 51 73 0.0 0.0 0.00 0.00 0.00 84 1012.0
20260509024541 52 73 0.0 0.0 0.00 0.00 0.00 80 1011.8
20260509023058 53 73 0.0 0.0 0.00 0.00 0.00 80 1012.0
20260509021541 53 73 0.0 0.0 0.00 0.00 0.00 78 1012.1
20260509020051 55 73 0.0 0.0 0.00 0.00 0.00 75 1012.0
20260509014541 55 72 0.0 0.0 0.00 0.00 0.00 75 1011.9
20260509013044 56 72 0.0 0.0 0.00 0.00 0.00 73 1011.8
20260509011541 57 72 0.0 0.0 0.00 0.00 0.00 68 1011.7
20260509010041 58 72 0.0 0.0 0.00 0.00 0.00 65 1011.7
20260509004537 59 70 0.0 0.0 0.00 0.00 0.00 63 1011.6
20260509003037 61 70 0.0 0.0 0.00 0.00 0.00 59 1011.7
20260509001536 63 70 0.0 0.0 0.00 0.00 0.00 56 1011.7
20260509000035 64 63 0.0 0.0 0.00 0.00 0.00 54 1011.8
20260508234536 65 56 0.0 1.7 0.00 0.00 0.00 51 1011.8
20260508233037 66 54 0.0 2.6 0.00 0.00 0.00 47 1011.9
20260508231536 67 49 1.7 5.2 0.00 0.00 0.00 44 1011.9
20260508230040 67 63 0.0 2.6 0.00 0.00 0.00 46 1011.8
20260508224532 68 68 0.0 2.6 0.00 0.00 0.00 44 1011.7
20260508223033 68 75 0.0 4.3 0.00 0.00 0.00 44 1011.8
20260508221531 68 70 0.0 3.5 0.00 0.00 0.00 48 1011.8
20260508220030 68 316 0.0 7.0 0.00 0.00 0.00 48 1012.0
20260508214532 69 45 1.7 6.1 0.00 0.00 0.00 43 1012.1
20260508213037 69 37 0.0 3.5 0.00 0.00 0.00 44 1012.3
20260508211535 69 38 0.9 6.1 0.00 0.00 0.00 44 1012.3
20260508210027 69 31 0.0 4.3 0.00 0.00 0.00 44 1012.4
20260508204525 70 315 0.9 6.1 0.00 0.00 0.00 42 1012.2